Location: Vancouver
(49.2500°N, 123.1330°W)
Time: 08:46:50
(UTC-07:00)

YAOGAN 6 - Pass Details

Date: 20 February 2018
Orbit: 466 x 508 km, 97.1° (Epoch: 21 June)

Event Time Altitude Azimuth Distance (km) Brightness Sun altitude
Exits shadow 19:37:00 38° 32° (NNE) 773 3.3 -19.5°
Drops below altitude 10° 19:39:39 10° 359° (N) 1,690 5.4 -20.0°
Sets 19:41:46 0° 353° (N) 2,569 6.4 -20.3°
